North Las Vegas, NV

8:35 AM PDT on August 27, 2016 (GMT -0700)
North Las Vegas

Weather History for KVGT - May, 2014

Change the Weather History Date:

Monday, May 26, 2014

  Actual Average Record
Temperature  
Mean Temperature 87 °F 79 °F  
Max Temperature 102 °F 91 °F 102 °F (2014)
Min Temperature 72 °F 67 °F 53 °F (2012)
Degree Days  
Heating Degree Days 0 0  
Month to date heating degree days 0  
Since 1 July heating degree days 2038  
Cooling Degree Days 22 14  
Month to date cooling degree days 273  
Year to date cooling degree days 400  
Growing Degree Days 37 (Base 50)    
Moisture  
Dew Point 31 °F    
Average Humidity 14    
Maximum Humidity 27    
Minimum Humidity 7    
Precipitation  
Precipitation 0.00 in 0.00 in 0.00 in (2016)
Month to date precipitation 0.11  
Year to date precipitation 2.57  
Sea Level Pressure  
Sea Level Pressure 29.83 in    
Wind  
Wind Speed 4 mph (WSW)    
Max Wind Speed 14 mph    
Max Gust Speed 21 mph    
Visibility 10 miles    
Events      
T = Trace of Precipitation, MM = Missing Value Source: NWS Daily Summary

Daily Weather History Graph

Daily Weather History Graph

Search for Another Location

Airport or City:

Trip Planner

Search our weather history database for the weather conditions in past years. The results will help you decide how hot, cold, wet, or windy it might be!

Date:

Astronomy

May. 26, 2014 Rise Set
Actual Time 5:27 AM PDT 7:48 PM PDT
Civil Twilight 4:57 AM PDT 8:18 PM PDT
Nautical Twilight 4:21 AM PDT 8:54 PM PDT
Astronomical Twilight 3:42 AM PDT 9:34 PM PDT
Moon 4:07 AM PDT (5/26) 5:59 PM PDT (5/26)
Length of Visible Light 15h 20m
Length of Day
14h 21m
Waning Crescent, 4% of the Moon is Illuminated
May 26
Waning Crescent
May 28
New
Jun 5
First Quarter
Jun 12
Full
Jun 19
Last Quarter

Hourly Weather History & Observations

Time (PDT) Temp. Dew Point Humidity Pressure Visibility Wind Dir Wind Speed Gust Speed Precip Events Conditions
12:53 AM 79.0 °F 35.1 °F 20% 29.80 in 10.0 mi Calm Calm - N/A   Clear
1:53 AM 75.0 °F 33.1 °F 22% 29.81 in 10.0 mi NW 4.6 mph - N/A   Clear
2:53 AM 73.9 °F 32.0 °F 21% 29.81 in 10.0 mi North 6.9 mph - N/A   Clear
3:53 AM 73.0 °F 34.0 °F 24% 29.83 in 10.0 mi SSE 4.6 mph - N/A   Clear
4:53 AM 75.0 °F 34.0 °F 22% 29.84 in 10.0 mi WNW 6.9 mph - N/A   Clear
5:53 AM 72.0 °F 34.0 °F 25% 29.86 in 10.0 mi North 4.6 mph - N/A   Clear
6:53 AM 75.0 °F 39.0 °F 27% 29.89 in 10.0 mi NNE 4.6 mph - N/A   Clear
7:53 AM 82.0 °F 36.0 °F 19% 29.90 in 10.0 mi Calm Calm - N/A   Clear
8:53 AM 84.0 °F 33.1 °F 16% 29.92 in 10.0 mi East 4.6 mph - N/A   Clear
9:53 AM 88.0 °F 33.1 °F 14% 29.92 in 10.0 mi NE 4.6 mph - N/A   Clear
10:53 AM 91.0 °F 33.1 °F 13% 29.91 in 10.0 mi Calm Calm - N/A   Clear
11:53 AM 91.9 °F 30.9 °F 11% 29.89 in 10.0 mi Variable 4.6 mph - N/A   Clear
12:53 PM 96.1 °F 30.0 °F 10% 29.87 in 10.0 mi Variable 3.5 mph - N/A   Clear
1:53 PM 97.0 °F 30.9 °F 10% 29.85 in 10.0 mi Calm Calm - N/A   Clear
2:53 PM 99.0 °F 30.9 °F 9% 29.81 in 10.0 mi SE 4.6 mph - N/A   Clear
3:53 PM 100.4 °F 30.2 °F 9% 29.81 in 10.0 mi ESE 10.4 mph - N/A   Clear
4:53 PM 102.0 °F 28.9 °F 8% 29.76 in 10.0 mi SSE 13.8 mph 20.7 mph N/A   Clear
5:53 PM 100.9 °F 26.1 °F 7% 29.75 in 10.0 mi SW 9.2 mph - N/A   Clear
6:53 PM 100.9 °F 25.0 °F 7% 29.75 in 10.0 mi WNW 9.2 mph - N/A   Clear
7:53 PM 98.1 °F 25.0 °F 7% 29.76 in 10.0 mi West 10.4 mph - N/A   Clear
8:53 PM 95.0 °F 26.1 °F 9% 29.78 in 10.0 mi SSW 6.9 mph - N/A   Clear
9:53 PM 93.0 °F 26.1 °F 9% 29.79 in 10.0 mi SW 6.9 mph - N/A   Clear
10:53 PM 91.4 °F 26.6 °F 10% 29.84 in 10.0 mi Calm Calm - N/A   Clear
11:53 PM 90.0 °F 30.0 °F 12% 29.81 in 10.0 mi WSW 4.6 mph - N/A   Clear